Regional Weather Roundup
Issued by NWS

Home | Current Version | Previous Version | Text Only | Print | Product List | Glossary Off
Versions: 1 2 3 4 5 6 7 8 9 10 11 12 13 14 15 16 17 18 19 20 21 22 23 24 25 26 27 28 29 30 31 32 33 34 35 36 37 38 39 40 41 42 43 44 45 46 47 48 49 50

296
ASUS43 KLMK 292202
RWRKY
KENTUCKY REGIONAL WEATHER ROUNDUP
NATIONAL WEATHER SERVICE LOUISVILLE KY
600 PM EDT SUN MAY 29 2016

NOTE "FAIR" INDICATES FEW OR NO CLOUDS BELOW 12,000 FEET
WITH NO SIGNIFICANT WEATHER AND/OR OBSTRUCTIONS TO VISIBILITY.

KYZ001>023-026-027-061>063-070>075-292300-
WESTERN AND SOUTH CENTRAL KENTUCKY

CITY           SKY/WX    TMP DP  RH WIND       PRES   REMARKS
PADUCAH        MOSUNNY   86  64  47 W8        30.04F
HENDERSON      MOSUNNY   81  64  57 S12       30.02S
OWENSBORO      CLOUDY    84  68  58 NW10      30.04R
HOPKINSVILLE   NOT AVBL
BOWLING GREEN  MOSUNNY   87  66  49 SW8       30.03F
GLASGOW        NOT AVBL
$$

KYZ024-025-028>034-038-045-046-053-292300-
NORTH CENTRAL KENTUCKY

CITY           SKY/WX    TMP DP  RH WIND       PRES   REMARKS
LOUISVILLE/SDF PTSUNNY   87  64  46 SW9       30.00F
LOUISVILLE/LOU MOSUNNY   86  65  49 SW8       30.01F
FORT KNOX      MOSUNNY   83  67  56 SW5       30.01F
$$

KYZ035>037-039>044-047>052-055>060-089>105-292300-
NORTHEAST KENTUCKY

CITY           SKY/WX    TMP DP  RH WIND       PRES   REMARKS
LEXINGTON      SUNNY     83  64  52 W7        30.04F
COVINGTON      PTSUNNY   83  65  54 SW3       30.01F
FRANKFORT      SUNNY     86  63  45 SW8       30.01F
$$

KYZ054-064>069-076>088-106>120-292300-
SOUTHEAST KENTUCKY

CITY           SKY/WX    TMP DP  RH WIND       PRES   REMARKS
JACKSON        SUNNY     80  65  59 CALM      30.08F
LONDON         SUNNY     83  62  49 CALM      30.06F
SOMERSET       NOT AVBL
MIDDLESBORO    CLOUDY    76  64  64 E7        30.09S
MONTICELLO     CLEAR     84  66  54 W9        30.07F
$$





USA.gov is the U.S. government's official web portal to all federal, state and local government web resources and services.